Probability
0 0 0 0 0 0 0 0 0 0 0 0 0 0 0 0 0 0 0 0 0 0 0 0 0 0 0 0 0 0 0 0 0 0 0 0 0 0 0 0 0 0 0
0 0 0 0 0 0 0 0 0 0 0 0 0 0 0 0 0 0 0 0 0 0 0 0 0 0 0 0 0 0 0 0 0 0 0 0 0 0 0 0 0 0 0
0 0 0 0 0 0 0 0 0 0 0 0 0 0 0 0 0 0 0 0 0 0 0 0 0 0 0 0 0 0 0 0 0 0 0 0 0 0 0 0 0 0 0
0 0 0 0 0 0 0 0 0 0 0 0 0 0 0 0 0 0 0 0 0 0 0 0 0 0 0 0 0 0 0 0 0 0 0 0 0 0 0 0 0 0 0
0 0 0 0 0 0 0 0 0 0 0 0 0 0 0 0 0 0 0 0 0 0 0 0 0 0 0 0 0 0 0 0 0 0 0 0 0 0 0 0 0 0 0
0 0 0 0 0 0 0 0 0 0 0 0 0 0 0 0 0 0 0 0 0 0 0 0 0 0 0 0 0 0 0 0 0 0 0 0 0 0 0 0 0 0 0
0 0 0 0 0 0 0 0 0 0 0 0 0 0 0 0 0 0 0 0 0 0 0 0 0 0 0 0 0 0 0 0 0 0 0 0 0 0 0 0 0 0 0
0 0 0 0 0 0 0 0 0 0 0 0 0 0 0 0 0 0 0 0 0 0 0 0 0 0 0 0 0 0 0 0 0 0 0 0 0 0 0 0 0 0 0
0 0 0 0 0 0 0 0 0 0 0 0 0 0 0 0 0 0 0 0 0 0 0 0 0 0 0 0 0 0 0 0 0 0 0 0 0 0 0 0 0 0 0
0 0 0 0 0 0 0 0 0 0 0 0 0 0 0 0 0 0 0 0 0 0 0 0 0 0 0 0 0 0 0 0 0 0 0 0 0 0 0 0 0 0 0
0 0 0 0 0 0 0 0 0 0 0 0 0 0 0 0 0 0 0 0 0 0 0 0 0 0 0 0 0 0 0 0 0 0 0 0 0 0 0 0 0 0 0
0 0 0 0 0 0 0 0 0 0 0 0 0 0 0 0 0 0 0 0 0 0 0 0 0 0 0 0 0 0 0 0 0 0 0 0 0 0 0 0 0 0 0
0 0 0 0 0 0 0 0 0 0 0 0 0 0 0 0 0 0 0 0 0 0 0 0 0 0 0 0 0 0 0 0 0 0 0 0 0 0 0 0 0 0 0
0 0 0 0 0 0 0 0 0 0 0 0 0 0 0 0 0 0 0 0 0 0 0 0 0 0 0 0 0 0 0 0 0 0 0 0 0 0 0 0 0 0 0
0 0 0 0 0 0 0 0 0 0 0 0 0 0 0 0 0 0 0 0 0 0 0 0 0 0 0 0 0 0 0 0 0 0 0 0 0 0 0 0 0 0 0
0 0 0 0 0 0 0 0 0 0 0 0 0 0 0 0 0 0 0 0 0 0 0 0 0 0 0 0 0 0 0 0 0 0 0 0 0 0 0 0 0 0 0
0 0 0 0 0 0 0 0 0 0 0 0 0 0 0 0 0 0 0 0 0 0 0 0 0 0 0 0 0 0 0 0 0 0 0 0 0 0 0 0 0 0 0
0 0 0 0 0 0 0 0 0 0 0 0 0 0 0 0 0 0 0 0 0 0 0 0 0 0 0 0 0 0 0 0 0 0 0 0 0 0 0 0 0 0 0
0 0 0 0 0 0 0 0 0 0 0 0 0 0 0 0 0 0 0 0 0 0 0 0 0 0 0 0 0 0 0 0 0 0 0 0 0 0 0 0 0 0 0
0 0 0 0 0 0 0 0 0 0 0 0 0 0 0 0 0 0 0 0 0 0 0 0 0 0 0 0 0 0 0 0 0 0 0 0 0 0 0 0 0 0 0
0 0 0 0 0 0 0 0 0 0 0 0 0 0 0 0 0 0 0 0 0 0 0 0 0 0 0 0 0 0 0 0 0 0 0 0 0 0 0 0 0 0 0
0 0 0 0 0 0 0 0 0 0 0 0 0 0 0 0 0 0 0 0 0 0 0 0 0 0 0 0 0 0 0 0 0 0 0 0 0 0 0 0 0 0 0
0 0 0 0 0 0 0 0 0 0 0 0 0 0 0 0 0 0 0 0 0 0 0 0 0 0 0 0 0 0 0 0 0 0 0 0 0 0 0 0 0 0 0
0 0 0 0 0 0 0 0 0 0 0 0 0 0 0 0 0 0 0 0 0 0 0 0 0 0 0 0 0 0 0 0 0 0 0 0 0 0 0 0 0 0 0
0 0 0 0 0 0 0 0 0 0 0 0 0 0 0 0 0 0 0 0 0 0 0 0 0 0 0 0 0 0 0 0 0 0 0 0 0 0 0 0 0 0 0
0 0 0 0 0 0 0 0 0 0 0 0 0 0 0 0 0 0 0 0 0 0 0 0 0 0 0 0 0 0 0 0 0 0 0 0 0 0 0 0 0 0 0
Wind_Speed
6 8 9 10 12 15 17 17 18 16 12 7 5 5 5 5 6 6 7 5 4 3 2 1 3 4 5 6 7 4 4 2 3 2 2 3 4 5 4 4 4 5 5
7 9 11 12 14 15 15 16 16 16 14 9 4 3 3 4 5 7 9 10 8 6 4 3 1 1 2 3 4 4 3 3 4 4 1 3 4 5 5 4 5 5 4
7 8 11 12 13 16 15 13 15 16 15 13 8 6 6 6 8 9 9 10 10 9 7 6 3 1 0 2 4 4 6 4 4 3 4 4 6 4 3 5 5 5 5
6 8 10 12 13 11 10 12 14 15 15 13 12 13 10 8 7 6 7 10 12 11 10 8 6 3 2 2 2 3 3 4 4 4 3 3 2 2 5 4 3 5 6
6 7 8 9 9 9 10 10 12 15 14 14 14 12 11 7 6 7 11 11 10 12 12 10 8 6 3 3 3 2 4 4 4 5 4 4 3 3 3 5 4 4 6
5 6 6 7 8 8 9 10 12 13 12 13 13 12 12 11 11 11 10 8 7 8 13 11 9 7 5 5 4 3 4 4 5 5 5 4 4 4 5 6 5 5 5
4 4 5 6 7 8 8 8 10 11 10 11 11 11 10 10 11 9 8 8 7 6 10 10 9 8 7 6 5 4 4 4 5 6 6 6 7 4 4 4 4 5 4
5 5 5 5 5 6 7 7 8 8 8 9 8 8 8 6 6 7 6 7 6 6 8 9 9 9 9 8 6 4 5 4 5 7 7 6 6 6 6 5 4 6 5
6 5 5 4 4 5 5 5 6 6 7 6 6 7 7 7 6 6 6 5 5 6 8 8 9 9 9 8 7 5 6 5 5 6 7 6 5 5 6 6 6 7 10
7 6 5 5 4 4 3 3 4 4 3 4 4 3 4 4 4 4 6 6 6 7 8 9 9 9 9 8 8 7 6 6 6 5 6 7 6 5 5 6 7 7 9
8 7 6 5 5 4 3 2 2 1 1 1 1 2 2 3 4 4 5 5 6 6 7 8 8 9 8 8 8 8 8 8 8 7 7 8 8 6 5 5 6 7 7
8 7 6 5 5 4 4 4 4 3 3 2 1 1 2 3 3 4 5 5 6 6 7 7 8 9 9 8 8 9 9 9 10 9 9 9 7 8 7 6 7 8 8
7 6 6 6 6 6 5 5 5 5 5 4 3 3 3 4 4 5 5 5 6 7 7 7 8 9 10 10 10 9 10 9 10 10 10 10 9 10 8 8 8 7 8
8 7 6 6 6 6 6 6 6 6 5 4 4 4 5 5 5 5 6 6 6 7 8 8 8 9 10 11 12 12 11 11 11 11 11 11 11 11 11 9 10 9 9
7 8 8 7 6 6 6 6 6 5 4 4 4 5 5 4 5 6 6 7 7 8 8 9 10 10 9 10 11 11 12 13 14 14 12 13 15 18 16 12 10 9 9
7 7 7 7 7 7 7 6 5 4 3 3 4 4 5 5 6 6 7 8 9 9 10 11 11 13 12 20 25 22 14 14 16 17 16 14 14 19 25 27 25 20 15
6 7 7 7 7 7 6 5 4 1 0 1 3 4 5 5 7 8 9 10 11 12 14 14 13 16 18 27 28 28 20 17 17 17 17 16 15 15 14 20 26 24 26
6 6 6 7 6 5 4 3 3 2 1 2 3 4 5 6 7 9 11 12 13 13 15 16 16 18 20 28 29 30 22 19 19 19 19 20 20 17 19 16 16 17 18
7 8 8 7 5 5 4 4 3 2 1 2 3 4 5 6 8 10 11 12 12 13 14 15 14 15 18 26 29 30 16 16 20 20 20 20 21 27 32 24 19 20 19
7 7 6 5 5 5 4 4 3 1 1 2 3 4 4 5 8 10 11 10 11 13 14 15 14 15 16 24 29 28 13 14 16 16 18 22 26 29 32 22 19 21 20
8 7 6 6 6 5 4 4 2 2 2 2 3 4 5 6 8 9 9 10 12 13 13 15 15 14 15 21 26 27 14 13 15 14 14 15 26 31 32 29 21 24 23
7 7 7 6 6 5 4 3 2 2 2 1 3 5 6 7 7 8 9 9 10 12 13 13 13 11 13 17 21 27 26 25 17 15 15 16 29 32 34 28 27 34 30
9 7 7 7 5 4 4 3 2 1 1 2 5 6 7 7 7 8 9 9 8 9 11 11 12 12 11 14 25 27 29 31 21 16 26 30 34 33 25 28 33 27 18
8 7 7 7 6 5 4 3 1 0 1 4 6 6 6 6 6 6 7 7 8 9 11 12 12 13 12 12 12 13 15 21 21 18 22 31 33 29 26 21 19 15 15
6 7 7 7 6 5 4 2 2 2 3 5 6 6 6 6 6 7 7 10 10 12 15 13 13 14 14 16 27 23 16 15 16 18 15 13 12 12 12 12 12 12 13
6 6 6 6 5 4 3 3 3 3 4 4 5 4 5 5 6 7 10 16 18 24 26 25 23 17 23 30 31 31 32 33 32 22 13 12 11 12 12 12 11 11 12
Wind_Direction
46 31 24 23 31 31 31 28 28 21 20 16 17 27 33 25 29 27 26 28 38 61 102 130 155 166 180 187 181 154 165 158 131 112 315 302 276 260 247 228 209 205 200
42 35 32 33 35 36 32 33 31 27 26 20 12 24 32 33 29 28 27 23 26 35 46 60 95 182 181 172 173 160 156 171 162 148 153 285 295 259 236 229 221 214 202
53 38 37 36 37 36 31 34 34 33 29 26 27 26 28 25 22 19 18 17 21 25 28 31 34 26 193 208 203 193 180 190 199 183 169 195 247 288 274 240 230 218 213
51 47 44 42 39 33 32 38 40 40 35 35 40 46 44 35 16 9 16 17 21 22 20 19 21 19 356 304 253 227 222 198 206 220 223 208 208 256 303 300 264 238 230
61 55 49 49 43 35 36 37 43 43 39 42 43 47 45 34 19 21 24 21 18 20 16 12 9 7 355 329 304 271 244 232 226 213 211 216 210 193 226 282 297 279 243
75 64 54 52 47 39 39 39 46 43 38 43 44 47 44 36 32 26 22 17 13 14 13 8 6 1 354 338 318 294 267 253 251 245 229 221 219 209 207 239 248 256 264
106 87 68 57 51 45 41 40 46 43 35 41 42 41 41 40 37 26 20 17 12 8 2 2 1 359 351 342 332 316 296 273 261 255 251 243 240 224 219 235 253 258 270
138 124 108 91 74 62 51 47 48 44 35 38 37 35 36 37 33 26 22 17 7 356 355 357 358 357 355 352 345 327 307 294 280 274 268 261 252 238 235 235 240 265 271
163 150 136 120 106 88 72 64 58 50 40 37 37 36 33 33 25 17 17 11 0 353 354 355 355 352 351 350 347 336 320 307 287 277 274 271 265 252 247 241 227 241 264
176 166 155 144 136 128 115 94 81 68 49 40 36 36 28 25 17 12 8 359 351 349 348 349 347 343 342 344 344 334 327 321 304 286 277 273 267 259 248 245 242 236 251
184 173 164 158 154 153 156 156 151 132 93 43 26 12 358 356 357 353 345 340 337 339 339 336 334 332 329 332 330 323 321 318 310 303 291 281 273 267 256 245 245 245 241
178 168 165 165 169 179 190 197 200 203 212 213 231 277 296 311 318 315 314 318 319 320 320 321 321 320 320 318 315 311 309 305 303 300 296 289 284 274 266 254 247 246 239
170 168 171 179 188 197 202 208 211 215 219 218 231 256 272 282 288 292 296 299 298 299 300 299 301 304 307 308 306 300 296 291 287 287 286 285 282 279 273 264 259 253 248
176 177 186 197 203 208 211 215 223 221 220 221 232 253 265 270 276 284 289 289 287 286 286 284 282 284 288 293 295 296 294 290 286 280 276 275 271 271 271 270 266 260 255
184 190 197 205 211 218 225 225 229 228 222 228 246 262 276 283 289 294 294 293 289 287 285 287 285 283 283 284 287 290 289 289 289 285 277 271 267 265 269 267 264 258 260
195 200 202 205 213 220 226 228 232 232 220 242 272 301 316 319 320 320 319 316 311 306 301 296 294 291 290 295 298 298 293 288 285 285 284 279 271 270 273 272 269 262 257
199 201 204 211 220 225 223 220 222 204 169 300 319 334 341 343 344 339 332 324 318 312 307 302 300 297 296 300 301 300 298 289 284 282 282 280 276 272 270 272 272 270 264
204 208 212 220 223 214 192 168 137 116 73 357 358 15 13 357 341 332 321 316 312 308 305 304 302 299 299 305 306 305 299 289 283 280 279 279 278 275 276 272 266 260 258
205 214 218 216 199 176 158 138 125 98 51 23 32 28 9 342 327 316 311 310 308 304 301 298 299 300 303 307 305 301 293 286 284 283 280 278 276 276 277 274 269 266 263
217 219 214 190 170 159 140 137 137 126 103 55 20 358 339 318 306 302 302 301 299 296 298 297 298 296 295 298 300 299 290 286 286 285 283 281 280 279 278 271 265 262 261
226 214 192 179 167 145 136 144 151 156 103 54 348 319 306 295 290 288 290 293 293 294 293 293 292 289 288 293 296 296 292 286 287 286 287 286 288 287 286 281 272 266 265
218 194 180 168 145 135 137 157 172 114 70 351 306 292 284 282 284 279 285 285 287 291 291 291 292 289 289 289 291 292 290 289 287 285 285 284 286 285 285 284 279 280 276
208 186 172 157 142 136 142 174 170 89 335 303 287 279 273 266 271 276 286 288 286 288 293 294 294 293 288 285 290 290 289 287 282 275 274 277 281 283 283 283 281 280 275
193 168 160 165 169 160 152 168 202 216 274 280 280 278 277 278 275 277 284 286 288 288 288 288 289 290 288 287 285 279 279 279 277 275 273 275 276 275 274 275 277 271 265
175 162 169 171 169 161 171 193 215 229 257 268 272 281 283 279 283 283 280 286 276 277 289 291 293 298 298 294 297 299 295 289 281 283 274 266 262 257 255 257 260 263 267
157 154 155 157 160 171 207 224 229 227 242 266 277 283 288 287 289 294 296 295 297 300 302 303 304 303 303 308 311 311 310 308 305 301 291 288 280 271 265 261 259 259 261